sat.trackr.live / text

‹ back to catalog

STARLINK-32324

NORAD 61863 · 2024-202U

PAYLOAD ACTIVE UNKNOWN

§ Identity

Operator
Country
US
Launch date
2024-11-07
Launch site
AFETR
Launch vehicle
Mass (kg)
RCS (m²)

Purposes: comms

External: N2YO · Heavens-Above · Gunter

§ Orbital elements

Epoch: 2026-09-21T06:01:10.360704Z

Period
94.27 min
Inclination
43.0026°
Eccentricity
0.0000984
Mean motion
15.27575854 rev/d
Perigee alt
482.4 km
Apogee alt
483.7 km
Semi-major
6,861.2 km
B*
5.6697e-6
RAAN
213.7843°
Arg perigee
278.4306°
Mean anomaly
81.6434°
Rev number
10,523

§ Raw data

STARLINK-323241 61863U 24202U   26264.25081436 -.00000106  00000+0  56697-5 0  99982 61863  43.0026 213.7843 0000984 278.4306  81.6434 15.27575854105236

JSON: /api/v1/satellites/61863 · /tle

For live sub-satellite position, see the globe view (requires WebGL).

§ Visibility from observer

Set your observer location to see the next 7 days of passes ≥ 10°. The values pass through the URL so the page stays shareable.

No JS? Fill the form by hand. The geolocation button needs JavaScript.